| time (UTC) | temp F | wind direction | speed knots | gust knots | rain 1hr in | rain 24hr in | rain mn in | humidity % | barometer mb |
| 20260504002444 | 81 | 49 | 2.6 | 7.8 | 0.00 | 0.00 | 0.00 | 30 | 1012.0 |
| 20260504001944 | 81 | 40 | 6.1 | 7.8 | 0.00 | 0.00 | 0.00 | 29 | 1012.0 |
| 20260504001444 | 82 | 45 | 5.2 | 7.0 | 0.00 | 0.00 | 0.00 | 30 | 1012.0 |
| 20260504000945 | 83 | 46 | 3.5 | 6.1 | 0.00 | 0.00 | 0.00 | 29 | 1012.0 |
| 20260504000445 | 83 | 325 | 4.3 | 8.7 | 0.00 | 0.00 | 0.00 | 29 | 1012.0 |
| 20260503235944 | 83 | 9 | 4.3 | 6.1 | 0.00 | 0.00 | 0.00 | 28 | 1012.0 |
| 20260503235445 | 83 | 42 | 1.7 | 7.8 | 0.00 | 0.00 | 0.00 | 29 | 1012.0 |
| 20260503234944 | 82 | 309 | 5.2 | 8.7 | 0.00 | 0.00 | 0.00 | 29 | 1012.0 |
| 20260503234444 | 83 | 39 | 5.2 | 8.7 | 0.00 | 0.00 | 0.00 | 29 | 1012.0 |
| 20260503233944 | 83 | 307 | 4.3 | 8.7 | 0.00 | 0.00 | 0.00 | 28 | 1012.0 |
| 20260503233446 | 83 | 38 | 5.2 | 9.6 | 0.00 | 0.00 | 0.00 | 28 | 1012.0 |
| 20260503232944 | 84 | 27 | 4.3 | 8.7 | 0.00 | 0.00 | 0.00 | 28 | 1012.0 |
| 20260503232444 | 83 | 24 | 5.2 | 7.8 | 0.00 | 0.00 | 0.00 | 30 | 1012.0 |
| 20260503231944 | 83 | 353 | 4.3 | 7.0 | 0.00 | 0.00 | 0.00 | 29 | 1012.0 |
| 20260503231444 | 84 | 302 | 2.6 | 8.7 | 0.00 | 0.00 | 0.00 | 29 | 1012.0 |
| 20260503230944 | 83 | 27 | 4.3 | 8.7 | 0.00 | 0.00 | 0.00 | 29 | 1012.0 |
| 20260503230445 | 83 | 44 | 5.2 | 7.8 | 0.00 | 0.00 | 0.00 | 30 | 1012.0 |
| 20260503225945 | 83 | 41 | 3.5 | 8.7 | 0.00 | 0.00 | 0.00 | 29 | 1012.0 |
| 20260503225444 | 82 | 23 | 6.1 | 8.7 | 0.00 | 0.00 | 0.00 | 31 | 1012.0 |
| 20260503224944 | 83 | 11 | 6.1 | 7.8 | 0.00 | 0.00 | 0.00 | 31 | 1011.0 |
| 20260503224445 | 82 | 29 | 4.3 | 10.4 | 0.00 | 0.00 | 0.00 | 31 | 1011.0 |
| 20260503223945 | 82 | 17 | 6.1 | 8.7 | 0.00 | 0.00 | 0.00 | 31 | 1011.0 |
| 20260503223444 | 83 | 10 | 6.1 | 8.7 | 0.00 | 0.00 | 0.00 | 31 | 1011.0 |
| 20260503222944 | 83 | 59 | 4.3 | 7.8 | 0.00 | 0.00 | 0.00 | 29 | 1011.0 |
| 20260503222444 | 83 | 23 | 5.2 | 7.8 | 0.00 | 0.00 | 0.00 | 30 | 1011.0 |
| 20260503221945 | 83 | 59 | 6.1 | 7.8 | 0.00 | 0.00 | 0.00 | 30 | 1011.0 |
| 20260503221444 | 84 | 26 | 2.6 | 7.0 | 0.00 | 0.00 | 0.00 | 30 | 1011.0 |
| 20260503220945 | 84 | 64 | 4.3 | 7.0 | 0.00 | 0.00 | 0.00 | 29 | 1011.0 |
| 20260503220444 | 84 | 27 | 4.3 | 10.4 | 0.00 | 0.00 | 0.00 | 29 | 1010.0 |
| 20260503215944 | 82 | 2 | 7.0 | 10.4 | 0.00 | 0.00 | 0.00 | 30 | 1010.0 |
| 20260503215445 | 83 | 332 | 6.1 | 11.3 | 0.00 | 0.00 | 0.00 | 29 | 1010.0 |
| 20260503214944 | 83 | 310 | 6.1 | 7.8 | 0.00 | 0.00 | 0.00 | 30 | 1010.0 |
| 20260503214444 | 83 | 334 | 6.1 | 8.7 | 0.00 | 0.00 | 0.00 | 29 | 1010.0 |
| 20260503213945 | 83 | 48 | 4.3 | 9.6 | 0.00 | 0.00 | 0.00 | 30 | 1010.0 |
| 20260503213444 | 83 | 17 | 7.0 | 9.6 | 0.00 | 0.00 | 0.00 | 30 | 1009.0 |
| 20260503212944 | 83 | 34 | 5.2 | 8.7 | 0.00 | 0.00 | 0.00 | 31 | 1009.0 |
| 20260503212445 | 83 | 52 | 5.2 | 7.8 | 0.00 | 0.00 | 0.00 | 31 | 1009.0 |
| 20260503211945 | 83 | 338 | 5.2 | 7.8 | 0.00 | 0.00 | 0.00 | 32 | 1009.0 |
| 20260503211445 | 82 | 24 | 6.1 | 7.8 | 0.00 | 0.00 | 0.00 | 33 | 1009.0 |
| 20260503210945 | 82 | 50 | 3.5 | 8.7 | 0.00 | 0.00 | 0.00 | 33 | 1009.0 |
| 20260503210445 | 82 | 322 | 6.1 | 8.7 | 0.00 | 0.00 | 0.00 | 34 | 1009.0 |
| 20260503205945 | 82 | 325 | 5.2 | 7.0 | 0.00 | 0.00 | 0.00 | 32 | 1009.0 |
| 20260503205444 | 83 | 1 | 5.2 | 7.0 | 0.00 | 0.00 | 0.00 | 32 | 1009.0 |
| 20260503204945 | 82 | 47 | 6.1 | 7.8 | 0.00 | 0.00 | 0.00 | 33 | 1009.0 |
| 20260503204445 | 82 | 354 | 5.2 | 7.8 | 0.00 | 0.00 | 0.00 | 32 | 1009.0 |
| 20260503203944 | 82 | 32 | 5.2 | 7.0 | 0.00 | 0.00 | 0.00 | 32 | 1009.0 |
| 20260503203445 | 81 | 24 | 5.2 | 9.6 | 0.00 | 0.00 | 0.00 | 32 | 1009.0 |
| 20260503202944 | 81 | 52 | 6.1 | 10.4 | 0.00 | 0.00 | 0.00 | 32 | 1009.0 |
| 20260503202447 | 80 | 20 | 6.1 | 10.4 | 0.00 | 0.00 | 0.00 | 34 | 1009.0 |
| 20260503201944 | 81 | 317 | 7.0 | 7.8 | 0.00 | 0.00 | 0.00 | 34 | 1009.0 |
| 20260503201444 | 82 | 340 | 4.3 | 7.8 | 0.00 | 0.00 | 0.00 | 34 | 1009.0 |
| 20260503200945 | 82 | 29 | 2.6 | 6.1 | 0.00 | 0.00 | 0.00 | 35 | 1009.0 |
| 20260503200445 | 82 | 19 | 4.3 | 9.6 | 0.00 | 0.00 | 0.00 | 37 | 1009.0 |
| 20260503195944 | 82 | 30 | 2.6 | 6.1 | 0.00 | 0.00 | 0.00 | 36 | 1009.0 |
| 20260503195444 | 81 | 22 | 3.5 | 6.1 | 0.00 | 0.00 | 0.00 | 36 | 1009.0 |
| 20260503194944 | 80 | 302 | 4.3 | 7.0 | 0.00 | 0.00 | 0.00 | 37 | 1009.0 |
| 20260503194446 | 79 | 39 | 4.3 | 7.8 | 0.00 | 0.00 | 0.00 | 37 | 1009.0 |
| 20260503193945 | 79 | 309 | 5.2 | 7.8 | 0.00 | 0.00 | 0.00 | 37 | 1009.0 |
| 20260503193445 | 79 | 8 | 3.5 | 7.0 | 0.00 | 0.00 | 0.00 | 38 | 1009.0 |
| 20260503192945 | 78 | 15 | 6.1 | 7.0 | 0.00 | 0.00 | 0.00 | 39 | 1009.0 |
| 20260503192445 | 79 | 349 | 4.3 | 6.1 | 0.00 | 0.00 | 0.00 | 38 | 1009.0 |
| 20260503191944 | 80 | 351 | 2.6 | 7.0 | 0.00 | 0.00 | 0.00 | 37 | 1010.0 |
| 20260503191444 | 79 | 49 | 2.6 | 6.1 | 0.00 | 0.00 | 0.00 | 38 | 1010.0 |
| 20260503190944 | 79 | 59 | 3.5 | 7.8 | 0.00 | 0.00 | 0.00 | 38 | 1010.0 |
| 20260503190448 | 79 | 318 | 3.5 | 7.8 | 0.00 | 0.00 | 0.00 | 39 | 1010.0 |
| 20260503185945 | 78 | 319 | 3.5 | 6.1 | 0.00 | 0.00 | 0.00 | 40 | 1010.0 |
| 20260503185444 | 77 | 329 | 4.3 | 7.0 | 0.00 | 0.00 | 0.00 | 41 | 1010.0 |
| 20260503184944 | 78 | 324 | 5.2 | 7.0 | 0.00 | 0.00 | 0.00 | 40 | 1010.0 |
| 20260503184444 | 78 | 345 | 4.3 | 6.1 | 0.00 | 0.00 | 0.00 | 41 | 1011.0 |
| 20260503183945 | 77 | 350 | 4.3 | 7.8 | 0.00 | 0.00 | 0.00 | 42 | 1011.0 |
| 20260503183445 | 77 | 329 | 4.3 | 7.8 | 0.00 | 0.00 | 0.00 | 41 | 1011.0 |
| 20260503182946 | 77 | 347 | 2.6 | 7.0 | 0.00 | 0.00 | 0.00 | 42 | 1011.0 |
| 20260503182444 | 76 | 60 | 4.3 | 7.0 | 0.00 | 0.00 | 0.00 | 42 | 1011.0 |
| 20260503181945 | 76 | 41 | 3.5 | 7.0 | 0.00 | 0.00 | 0.00 | 43 | 1012.0 |
| 20260503181444 | 76 | 24 | 2.6 | 7.0 | 0.00 | 0.00 | 0.00 | 43 | 1012.0 |
| 20260503180944 | 75 | 32 | 7.0 | 7.8 | 0.00 | 0.00 | 0.00 | 45 | 1012.0 |
| 20260503180444 | 76 | 16 | 3.5 | 5.2 | 0.00 | 0.00 | 0.00 | 43 | 1013.0 |
| 20260503175945 | 75 | 28 | 3.5 | 7.0 | 0.00 | 0.00 | 0.00 | 43 | 1013.0 |
| 20260503175445 | 75 | 325 | 4.3 | 6.1 | 0.00 | 0.00 | 0.00 | 44 | 1013.0 |
| 20260503174945 | 75 | 40 | 4.3 | 7.8 | 0.00 | 0.00 | 0.00 | 44 | 1013.0 |
| 20260503174445 | 74 | 293 | 3.5 | 7.0 | 0.00 | 0.00 | 0.00 | 45 | 1014.0 |
| 20260503173945 | 73 | 12 | 5.2 | 7.0 | 0.00 | 0.00 | 0.00 | 46 | 1014.0 |
| 20260503173445 | 74 | 342 | 4.3 | 7.8 | 0.00 | 0.00 | 0.00 | 45 | 1013.0 |
| 20260503172944 | 73 | 48 | 5.2 | 7.8 | 0.00 | 0.00 | 0.00 | 46 | 1013.0 |
| 20260503172444 | 73 | 343 | 6.1 | 7.8 | 0.00 | 0.00 | 0.00 | 45 | 1013.0 |
| 20260503171945 | 74 | 11 | 4.3 | 7.0 | 0.00 | 0.00 | 0.00 | 45 | 1013.0 |
| 20260503171444 | 72 | 40 | 5.2 | 7.0 | 0.00 | 0.00 | 0.00 | 47 | 1013.0 |
| 20260503170944 | 73 | 30 | 3.5 | 6.1 | 0.00 | 0.00 | 0.00 | 46 | 1013.0 |
| 20260503170444 | 73 | 51 | 4.3 | 7.0 | 0.00 | 0.00 | 0.00 | 47 | 1012.0 |
| 20260503150945 | 63 | 14 | 2.6 | 5.2 | 0.00 | 0.00 | 0.00 | 60 | 1009.0 |
| 20260503150448 | 63 | 11 | 2.6 | 4.3 | 0.00 | 0.00 | 0.00 | 61 | 1009.0 |
| 20260503130945 | 57 | 17 | 1.7 | 2.6 | 0.00 | 0.00 | 0.00 | 68 | 1008.0 |
| 20260503110444 | 56 | 292 | 1.7 | 2.6 | 0.00 | 0.00 | 0.00 | 70 | 1011.0 |
| 20260503090445 | 58 | 120 | 0.0 | 0.9 | 0.00 | 0.00 | 0.00 | 65 | 1013.0 |
| 20260503081445 | 60 | 275 | 0.0 | 2.6 | 0.00 | 0.00 | 0.00 | 60 | 1015.0 |
| 20260503080944 | 59 | 274 | 0.9 | 1.7 | 0.00 | 0.00 | 0.00 | 60 | 1015.0 |
| 20260503080445 | 59 | 273 | 0.9 | 2.6 | 0.00 | 0.00 | 0.00 | 62 | 1015.0 |
| 20260503072444 | 59 | 290 | 1.7 | 2.6 | 0.00 | 0.00 | 0.00 | 63 | 1016.0 |
| 20260503071944 | 59 | 273 | 1.7 | 2.6 | 0.00 | 0.00 | 0.00 | 64 | 1016.0 |
| 20260503071445 | 59 | 272 | 1.7 | 2.6 | 0.00 | 0.00 | 0.00 | 64 | 1016.0 |
| 20260503070944 | 59 | 274 | 0.0 | 1.7 | 0.00 | 0.00 | 0.00 | 64 | 1016.0 |
| 20260503070444 | 60 | 273 | 0.0 | 1.7 | 0.00 | 0.00 | 0.00 | 64 | 1016.0 |
| 20260503054944 | 61 | 104 | 0.0 | 1.7 | 0.00 | 0.00 | 0.00 | 59 | 1018.0 |
| 20260503054445 | 61 | 74 | 0.0 | 0.9 | 0.00 | 0.00 | 0.00 | 58 | 1018.0 |
| 20260503053945 | 62 | 75 | 0.0 | 0.0 | 0.00 | 0.00 | 0.00 | 58 | 1018.0 |
| 20260503053446 | 62 | 76 | 0.0 | 1.7 | 0.00 | 0.00 | 0.00 | 57 | 1018.0 |
| 20260503052945 | 62 | 111 | 0.0 | 0.0 | 0.00 | 0.00 | 0.00 | 56 | 1018.0 |
| 20260503052445 | 63 | 111 | 0.0 | 1.7 | 0.00 | 0.00 | 0.00 | 56 | 1018.0 |
| 20260503051946 | 63 | 110 | 0.0 | 0.9 | 0.00 | 0.00 | 0.00 | 56 | 1018.0 |
| 20260503051444 | 63 | 109 | 0.0 | 0.0 | 0.00 | 0.00 | 0.00 | 55 | 1018.0 |
| 20260503050944 | 63 | 110 | 0.0 | 0.9 | 0.00 | 0.00 | 0.00 | 55 | 1018.0 |
| 20260503050444 | 64 | 109 | 0.0 | 0.9 | 0.00 | 0.00 | 0.00 | 54 | 1019.0 |
| 20260503045945 | 64 | 108 | 0.0 | 1.7 | 0.00 | 0.00 | 0.00 | 53 | 1019.0 |
| 20260503045444 | 64 | 108 | 0.9 | 1.7 | 0.00 | 0.00 | 0.00 | 52 | 1019.0 |
| 20260503044944 | 65 | 105 | 0.9 | 1.7 | 0.00 | 0.00 | 0.00 | 52 | 1019.0 |
| 20260503044444 | 65 | 93 | 0.0 | 0.9 | 0.00 | 0.00 | 0.00 | 51 | 1019.0 |
| 20260503043944 | 66 | 108 | 0.0 | 1.7 | 0.00 | 0.00 | 0.00 | 49 | 1019.0 |
| 20260503043445 | 66 | 100 | 0.0 | 1.7 | 0.00 | 0.00 | 0.00 | 48 | 1019.0 |
| 20260503042944 | 67 | 96 | 0.9 | 1.7 | 0.00 | 0.00 | 0.00 | 47 | 1019.0 |
| 20260503042445 | 67 | 33 | 0.0 | 0.9 | 0.00 | 0.00 | 0.00 | 46 | 1019.0 |
| 20260503041946 | 67 | 33 | 0.0 | 2.6 | 0.00 | 0.00 | 0.00 | 45 | 1020.0 |
| 20260503041444 | 67 | 31 | 0.9 | 2.6 | 0.00 | 0.00 | 0.00 | 45 | 1020.0 |
| 20260503040944 | 67 | 38 | 1.7 | 4.3 | 0.00 | 0.00 | 0.00 | 44 | 1020.0 |
| 20260503040444 | 68 | 10 | 2.6 | 4.3 | 0.00 | 0.00 | 0.00 | 45 | 1020.0 |
| 20260503035944 | 68 | 34 | 0.0 | 1.7 | 0.00 | 0.00 | 0.00 | 45 | 1020.0 |
| 20260503035446 | 68 | 17 | 0.0 | 0.9 | 0.00 | 0.00 | 0.00 | 45 | 1020.0 |
| 20260503034945 | 69 | 359 | 0.0 | 1.7 | 0.00 | 0.00 | 0.00 | 44 | 1020.0 |
| 20260503034445 | 69 | 52 | 1.7 | 4.3 | 0.00 | 0.00 | 0.00 | 42 | 1020.0 |
| 20260503033944 | 69 | 60 | 1.7 | 3.5 | 0.00 | 0.00 | 0.00 | 42 | 1020.0 |
| 20260503033444 | 70 | 44 | 1.7 | 3.5 | 0.00 | 0.00 | 0.00 | 41 | 1020.0 |
| 20260503032944 | 70 | 54 | 1.7 | 5.2 | 0.00 | 0.00 | 0.00 | 41 | 1020.0 |
| 20260503032446 | 70 | 67 | 1.7 | 5.2 | 0.00 | 0.00 | 0.00 | 40 | 1020.0 |
| 20260503031945 | 70 | 38 | 2.6 | 6.1 | 0.00 | 0.00 | 0.00 | 40 | 1020.0 |
| 20260503031445 | 71 | 42 | 3.5 | 7.0 | 0.00 | 0.00 | 0.00 | 40 | 1020.0 |
| 20260503030945 | 71 | 51 | 4.3 | 7.0 | 0.00 | 0.00 | 0.00 | 39 | 1020.0 |
| 20260503030446 | 71 | 12 | 3.5 | 7.0 | 0.00 | 0.00 | 0.00 | 39 | 1020.0 |
| 20260503025945 | 71 | 48 | 3.5 | 5.2 | 0.00 | 0.00 | 0.00 | 39 | 1020.0 |
| 20260503025444 | 72 | 37 | 4.3 | 7.8 | 0.00 | 0.00 | 0.00 | 39 | 1020.0 |
| 20260503024944 | 72 | 4 | 4.3 | 7.0 | 0.00 | 0.00 | 0.00 | 39 | 1020.0 |
| 20260503024446 | 72 | 33 | 6.1 | 7.8 | 0.00 | 0.00 | 0.00 | 39 | 1020.0 |
| 20260503023944 | 72 | 44 | 4.3 | 7.0 | 0.00 | 0.00 | 0.00 | 39 | 1020.0 |
| 20260503023444 | 72 | 51 | 4.3 | 7.8 | 0.00 | 0.00 | 0.00 | 39 | 1020.0 |
| 20260503022946 | 72 | 8 | 6.1 | 8.7 | 0.00 | 0.00 | 0.00 | 39 | 1020.0 |
| 20260503022448 | 73 | 64 | 6.1 | 7.8 | 0.00 | 0.00 | 0.00 | 39 | 1020.0 |
| 20260503021946 | 73 | 44 | 6.1 | 9.6 | 0.00 | 0.00 | 0.00 | 38 | 1020.0 |
| 20260503021445 | 73 | 33 | 6.1 | 9.6 | 0.00 | 0.00 | 0.00 | 39 | 1020.0 |
| 20260503020945 | 73 | 28 | 5.2 | 7.8 | 0.00 | 0.00 | 0.00 | 39 | 1020.0 |
| 20260503020445 | 74 | 4 | 5.2 | 8.7 | 0.00 | 0.00 | 0.00 | 39 | 1020.0 |
| 20260503015945 | 74 | 18 | 6.1 | 8.7 | 0.00 | 0.00 | 0.00 | 38 | 1020.0 |
| 20260503015444 | 74 | 35 | 6.1 | 9.6 | 0.00 | 0.00 | 0.00 | 38 | 1020.0 |
| 20260503014944 | 74 | 331 | 5.2 | 9.6 | 0.00 | 0.00 | 0.00 | 38 | 1020.0 |
| 20260503014444 | 75 | 22 | 4.3 | 8.7 | 0.00 | 0.00 | 0.00 | 38 | 1020.0 |
| 20260503013945 | 75 | 13 | 4.3 | 12.2 | 0.00 | 0.00 | 0.00 | 38 | 1020.0 |
| 20260503013445 | 75 | 49 | 5.2 | 9.6 | 0.00 | 0.00 | 0.00 | 37 | 1020.0 |
| 20260503012945 | 75 | 324 | 7.0 | 9.6 | 0.00 | 0.00 | 0.00 | 37 | 1020.0 |
| 20260503012444 | 76 | 18 | 4.3 | 8.7 | 0.00 | 0.00 | 0.00 | 37 | 1020.0 |
| 20260503011945 | 75 | 12 | 6.1 | 9.6 | 0.00 | 0.00 | 0.00 | 37 | 1020.0 |
| 20260503011446 | 76 | 353 | 5.2 | 9.6 | 0.00 | 0.00 | 0.00 | 37 | 1020.0 |
| 20260503010944 | 76 | 54 | 5.2 | 8.7 | 0.00 | 0.00 | 0.00 | 37 | 1019.0 |
| 20260503010445 | 76 | 32 | 5.2 | 7.8 | 0.00 | 0.00 | 0.00 | 37 | 1019.0 |
| 20260503005944 | 77 | 39 | 5.2 | 7.8 | 0.00 | 0.00 | 0.00 | 38 | 1019.0 |
| 20260503005444 | 77 | 5 | 4.3 | 6.1 | 0.00 | 0.00 | 0.00 | 37 | 1019.0 |
| 20260503004946 | 76 | 26 | 5.2 | 8.7 | 0.00 | 0.00 | 0.00 | 38 | 1019.0 |
| 20260503004444 | 77 | 10 | 5.2 | 7.8 | 0.00 | 0.00 | 0.00 | 38 | 1019.0 |
| 20260503003944 | 77 | 356 | 4.3 | 7.8 | 0.00 | 0.00 | 0.00 | 38 | 1018.0 |
| 20260503003444 | 77 | 70 | 4.3 | 7.8 | 0.00 | 0.00 | 0.00 | 38 | 1018.0 |
| 20260503002945 | 77 | 39 | 3.5 | 7.0 | 0.00 | 0.00 | 0.00 | 38 | 1018.0 |